Location: Kuffner-Sternwarte
(48.2130°N, 16.2960°E)
Time: 08:14:46
(UTC+02:00)

COROT - Pass Details

Date: 16 January 2018
Orbit: 602 x 887 km, 90.0° (Epoch: 16 July)

Event Time Altitude Azimuth Distance (km) Brightness Sun altitude
Rises 18:47:03 0° 231° (SW) 3,127 10.1 -22.3°
Reaches altitude 10° 18:51:03 10° 264° (W) 2,139 9.4 -23.0°
Maximum altitude 18:52:40 12° 284° (WNW) 2,004 9.1 -23.3°
Drops below altitude 10° 18:54:17 10° 305° (NW) 2,089 8.9 -23.5°
Sets 18:58:04 0° 339° (NNW) 2,949 9.2 -24.1°
